CREW DRAGON 3

Last updated on Fri May 06 2022 00:02:05 GMT+0000 (Coordinated Universal Time)

1 49407U 21103A 22125.44380927 .06775051 11328-4 10190-1 0 9992 2 49407 51.6404 188.2433 0143837 58.1913 20.4352 15.87224710 27202

Satellite not in orbit